Regional Weather Roundup
Issued by NWS Little Rock, AR

Home | Current Version | Previous Version | Graphics & Text | Print | Product List | Glossary On
Versions: 1 2 3 4 5 6 7 8 9 10 11 12 13 14 15 16 17 18 19 20 21 22 23 24 25 26 27 28 29 30 31 32 33 34 35 36 37 38 39 40 41 42 43 44 45 46 47 48 49 50
000
ASUS44 KLZK 042005
RWRLZK

WEATHER ROUNDUP FOR ARKANSAS
NATIONAL WEATHER SERVICE LITTLE ROCK AR
300 PM CDT FRI SEP 04 2015

NOTE: "FAIR" INDICATES FEW OR NO CLOUDS BELOW 12,000 FEET WITH NO
SIGNIFICANT WEATHER AND/OR OBSTRUCTIONS TO VISIBILITY.

ARZ001-003-010-029-042100-
NORTHWEST ARKANSAS

CITY           SKY/WX    TMP DP  RH WIND       PRES   REMARKS
FAYETTEVILLE   SUNNY     88  68  51 S7        30.02F HX  91
FORT SMITH     MOSUNNY   91  68  46 NE9       29.96F HX  95
HARRISON       MOSUNNY   89  68  49 E6        30.03F HX  93
BENTONVILLE    SUNNY     90  66  45 SW8       30.04S HX  92
ROGERS         PTSUNNY   87  68  52 S3        30.03F HX  90
SILOAM SPGS    MOSUNNY   90  66  45 SE7       30.00F HX  92
HIGHFILL       MOSUNNY   90  69  50 S10       30.02F HX  94
SPRINGDALE     MOSUNNY   88  66  48 S10       30.04F HX  90
$$

ARZ004-005-016-042100-
NORTH CENTRAL ARKANSAS

CITY           SKY/WX    TMP DP  RH WIND       PRES   REMARKS
BATESVILLE     MOSUNNY   93  72  49 SE7       30.00F HX 100
FLIPPIN        MOSUNNY   93  64  38 E7        29.99F HX  95
MTN HOME       SUNNY     90  65  43 SE5       30.01F HX  92
$$

ARZ040-041-042100-
WEST CENTRAL ARKANSAS

CITY           SKY/WX    TMP DP  RH WIND       PRES   REMARKS
MENA           MOSUNNY   95  66  38 CALM      29.99F HX  98
MOUNT IDA      MOSUNNY   92  65  40 SE7       29.96F HX  94
$$

ARZ009-017-025-026-028-042100-
NORTHEAST ARKANSAS

CITY           SKY/WX    TMP DP  RH WIND       PRES   REMARKS
JONESBORO      SUNNY     90  70  51 E5        29.98F HX  95
NEWPORT        MOSUNNY   94  70  45 S6        30.00F HX 100
WALNUT RIDGE   MOSUNNY   91  66  43 CALM      29.99F HX  94
BLYTHEVILLE    MOSUNNY   94  70  45 E5        30.00F HX 100
$$

ARZ022-023-033-042-044-042100-
CENTRAL ARKANSAS

CITY           SKY/WX    TMP DP  RH WIND       PRES   REMARKS
LITTLE ROCK    MOSUNNY   97  66  36 E9        29.96F HX 100
N LITTLE ROCK  MOSUNNY   96  70  43 E5        29.96F HX 102
JACKSONVILLE   SUNNY     94  67  40 E7        29.96F HX  98
SEARCY         MOSUNNY   96  69  41 E7        29.99F HX 102
HOT SPRINGS    MOSUNNY   94  64  37 VRB6      29.97F HX  95
RUSSELLVILLE   PTSUNNY   91  67  44 E5        29.96F HX  94
$$

ARZ036-042100-
EAST ARKANSAS

CITY           SKY/WX    TMP DP  RH WIND       PRES   REMARKS
WEST MEMPHIS   PTSUNNY   91  70  49 NE3       29.97F HX  96
$$

ARZ050-053-066-070-073-042100-
SOUTHWEST ARKANSAS

CITY           SKY/WX    TMP DP  RH WIND       PRES   REMARKS
ARKADELPHIA    FAIR      91  68  46 CALM      29.96F HX  95
CAMDEN         MOSUNNY   99  66  34 S6        29.95F HX 102
TEXARKANA      MOSUNNY   96  67  38 S12G20    29.95F HX 100
EL DORADO      PTSUNNY   95  66  38 VRB6      29.95F HX  98
DE QUEEN       LGT RAIN  83  76  79 NW10      29.93F HX  91
$$

ARZ056-057-069-042100-
SOUTHEAST ARKANSAS

CITY           SKY/WX    TMP DP  RH WIND       PRES   REMARKS
PINE BLUFF     SUNNY     94  70  45 E6        29.95F HX 100
STUTTGART      SUNNY     93  66  40 NE6       29.97F HX  96
MONTICELLO     MOSUNNY   94  68  42 CALM      29.95F HX  98

$$





USA.gov is the U.S. government's official web portal to all federal, state and local government web resources and services.